Location: Shenandoah County Park
(38.9356°N, 78.4524°W)
Time: 15:49:44
(UTC-04:00)

ACS3 Solar Sail - Visible Passes

Search period start: 18 April 2026 00:00
Search period end: 28 April 2026 00:00
Orbit: 872 x 974 km, 97.2° (Epoch: 18 April)

Date Brightness Start Highest point End Pass type
(mag) Time Alt. Az. Time Alt. Az. Time Alt. Az.
18 Apr 3.4 01:47:19 10° NNE 01:50:26 28° NE 01:50:26 28° NE visible
18 Apr 3.1 03:30:05 10° N 03:33:59 27° NW 03:33:59 27° NW visible
19 Apr 3.1 01:56:36 10° NNE 02:00:03 33° NE 02:00:03 33° NE visible
19 Apr 3.2 03:39:47 10° NNW 03:43:36 23° NW 03:43:36 23° NW visible
20 Apr 2.9 02:05:51 10° NNE 02:09:37 39° NE 02:09:37 39° NE visible
20 Apr 3.4 03:49:28 10° NNW 03:53:09 20° WNW 03:53:09 20° WNW visible
21 Apr 2.7 02:15:04 10° NNE 02:19:06 44° NNE 02:19:06 44° NNE visible
21 Apr 3.5 03:59:10 10° NNW 04:02:37 17° WNW 04:02:37 17° WNW visible
22 Apr 2.5 02:24:15 10° N 02:28:30 48° NNE 02:28:30 48° NNE visible
22 Apr 3.7 04:09:00 10° NNW 04:11:50 14° WNW 04:12:02 14° WNW visible
23 Apr 4.1 00:53:13 10° NE 00:54:19 13° ENE 00:54:19 13° ENE visible
23 Apr 2.4 02:33:24 10° N 02:37:50 50° N 02:37:50 50° N visible
23 Apr 3.8 04:19:10 10° NW 04:20:48 11° WNW 04:21:21 11° WNW visible
24 Apr 3.9 01:01:39 10° NE 01:03:35 16° ENE 01:03:35 16° ENE visible
24 Apr 2.4 02:42:30 10° N 02:47:06 49° NNW 02:47:06 49° NNW visible
25 Apr 3.7 01:10:11 10° NE 01:12:46 19° ENE 01:12:46 19° ENE visible
25 Apr 2.4 02:51:34 10° N 02:56:17 46° NW 02:56:17 46° NW visible
26 Apr 3.5 01:18:46 10° NE 01:21:54 23° ENE 01:21:54 23° ENE visible
26 Apr 2.5 03:00:37 10° N 03:05:24 41° NW 03:05:24 41° NW visible
27 Apr 3.3 01:27:23 10° NNE 01:30:57 28° ENE 01:30:57 28° ENE visible
27 Apr 2.7 03:09:37 10° N 03:14:27 35° NW 03:14:27 35° NW visible
